| time (UTC) | temp F | wind direction | speed knots | gust knots | rain 1hr in | rain 24hr in | rain mn in | humidity % | barometer mb |
| 20260502231605 | 63 | 323 | 1.7 | 7.0 | 0.00 | 0.00 | 0.00 | 84 | 1011.4 |
| 20260502231032 | 63 | 308 | 2.6 | 7.8 | 0.00 | 0.00 | 0.00 | 84 | 1011.4 |
| 20260502230534 | 63 | 249 | 3.5 | 7.8 | 0.00 | 0.00 | 0.00 | 84 | 1011.4 |
| 20260502230055 | 63 | 298 | 3.5 | 7.8 | 0.00 | 0.00 | 0.00 | 84 | 1011.5 |
| 20260502225535 | 63 | 294 | 4.3 | 8.7 | 0.00 | 0.00 | 0.00 | 84 | 1011.6 |
| 20260502225035 | 63 | 319 | 4.3 | 8.7 | 0.00 | 0.00 | 0.00 | 84 | 1011.6 |
| 20260502224552 | 64 | 298 | 3.5 | 7.8 | 0.00 | 0.00 | 0.00 | 84 | 1011.7 |
| 20260502224033 | 63 | 246 | 4.3 | 7.8 | 0.00 | 0.00 | 0.00 | 84 | 1011.8 |
| 20260502223535 | 64 | 270 | 3.5 | 8.7 | 0.00 | 0.00 | 0.00 | 84 | 1012.0 |
| 20260502223049 | 64 | 286 | 5.2 | 9.6 | 0.00 | 0.00 | 0.00 | 83 | 1012.0 |
| 20260502222532 | 64 | 226 | 4.3 | 9.6 | 0.00 | 0.00 | 0.00 | 83 | 1012.1 |
| 20260502222035 | 64 | 5 | 4.3 | 10.4 | 0.00 | 0.00 | 0.00 | 83 | 1012.2 |
| 20260502221548 | 64 | 272 | 5.2 | 10.4 | 0.00 | 0.00 | 0.00 | 82 | 1012.3 |
| 20260502221035 | 64 | 294 | 3.5 | 8.7 | 0.00 | 0.00 | 0.00 | 82 | 1012.4 |
| 20260502220536 | 65 | 255 | 5.2 | 8.7 | 0.00 | 0.00 | 0.00 | 82 | 1012.3 |
| 20260502220057 | 65 | 234 | 5.2 | 10.4 | 0.00 | 0.00 | 0.00 | 81 | 1012.4 |
| 20260502215535 | 65 | 9 | 4.3 | 10.4 | 0.00 | 0.00 | 0.00 | 81 | 1012.4 |
| 20260502215034 | 66 | 255 | 4.3 | 9.6 | 0.00 | 0.00 | 0.00 | 81 | 1012.4 |
| 20260502214551 | 66 | 248 | 3.5 | 8.7 | 0.00 | 0.00 | 0.00 | 80 | 1012.4 |
| 20260502214032 | 66 | 304 | 3.5 | 11.3 | 0.00 | 0.00 | 0.00 | 81 | 1012.5 |
| 20260502213531 | 66 | 309 | 5.2 | 11.3 | 0.00 | 0.00 | 0.00 | 80 | 1012.6 |
| 20260502213046 | 66 | 289 | 5.2 | 10.4 | 0.00 | 0.00 | 0.00 | 81 | 1012.7 |
| 20260502212535 | 67 | 270 | 6.1 | 11.3 | 0.00 | 0.00 | 0.00 | 81 | 1012.7 |
| 20260502212035 | 66 | 318 | 6.1 | 11.3 | 0.00 | 0.00 | 0.00 | 82 | 1012.8 |
| 20260502211548 | 66 | 329 | 5.2 | 11.3 | 0.00 | 0.00 | 0.00 | 82 | 1012.9 |
| 20260502211035 | 66 | 264 | 5.2 | 10.4 | 0.00 | 0.00 | 0.00 | 82 | 1012.6 |
| 20260502210534 | 66 | 263 | 5.2 | 10.4 | 0.00 | 0.00 | 0.00 | 83 | 1012.6 |
| 20260502210101 | 66 | 315 | 5.2 | 9.6 | 0.00 | 0.00 | 0.00 | 83 | 1012.8 |
| 20260502205534 | 66 | 292 | 4.3 | 9.6 | 0.00 | 0.00 | 0.00 | 83 | 1012.8 |
| 20260502205039 | 65 | 21 | 4.3 | 9.6 | 0.00 | 0.00 | 0.00 | 84 | 1012.7 |
| 20260502204548 | 65 | 308 | 3.5 | 7.0 | 0.00 | 0.00 | 0.00 | 84 | 1012.8 |
| 20260502204032 | 65 | 279 | 3.5 | 10.4 | 0.00 | 0.00 | 0.00 | 84 | 1012.8 |
| 20260502203536 | 65 | 302 | 5.2 | 10.4 | 0.00 | 0.00 | 0.00 | 84 | 1013.0 |
| 20260502203052 | 65 | 306 | 5.2 | 9.6 | 0.00 | 0.00 | 0.00 | 83 | 1012.9 |
| 20260502202534 | 65 | 284 | 4.3 | 9.6 | 0.00 | 0.00 | 0.00 | 83 | 1012.9 |
| 20260502202038 | 65 | 302 | 4.3 | 8.7 | 0.00 | 0.00 | 0.00 | 83 | 1012.9 |
| 20260502201552 | 65 | 263 | 2.6 | 7.0 | 0.00 | 0.00 | 0.00 | 84 | 1012.8 |
| 20260502201035 | 65 | 286 | 2.6 | 7.0 | 0.00 | 0.00 | 0.00 | 85 | 1012.8 |
| 20260502200535 | 65 | 295 | 3.5 | 7.0 | 0.00 | 0.00 | 0.00 | 85 | 1012.9 |
| 20260502200126 | 64 | 304 | 1.7 | 7.8 | 0.00 | 0.00 | 0.00 | 86 | 1013.0 |
| 20260502195536 | 64 | 310 | 3.5 | 7.8 | 0.00 | 0.00 | 0.00 | 85 | 1013.2 |
| 20260502195038 | 64 | 308 | 3.5 | 10.4 | 0.00 | 0.00 | 0.00 | 85 | 1013.3 |
| 20260502194542 | 64 | 300 | 3.5 | 10.4 | 0.00 | 0.00 | 0.00 | 85 | 1013.3 |
| 20260502194034 | 64 | 281 | 4.3 | 10.4 | 0.00 | 0.00 | 0.00 | 85 | 1013.4 |
| 20260502193538 | 64 | 314 | 3.5 | 7.8 | 0.00 | 0.00 | 0.00 | 85 | 1013.3 |
| 20260502193050 | 64 | 262 | 2.6 | 7.8 | 0.00 | 0.00 | 0.00 | 85 | 1013.3 |
| 20260502192537 | 64 | 300 | 2.6 | 7.8 | 0.00 | 0.00 | 0.00 | 86 | 1013.3 |
| 20260502192034 | 64 | 360 | 3.5 | 8.7 | 0.00 | 0.00 | 0.00 | 86 | 1013.5 |
| 20260502191543 | 64 | 292 | 3.5 | 8.7 | 0.00 | 0.00 | 0.00 | 85 | 1013.5 |
| 20260502191034 | 64 | 315 | 4.3 | 7.8 | 0.00 | 0.00 | 0.00 | 86 | 1013.7 |
| 20260502190535 | 65 | 254 | 4.3 | 7.8 | 0.00 | 0.00 | 0.00 | 86 | 1013.8 |
| 20260502190101 | 65 | 287 | 4.3 | 7.8 | 0.00 | 0.00 | 0.00 | 86 | 1014.0 |
| 20260502185533 | 64 | 294 | 3.5 | 7.0 | 0.00 | 0.00 | 0.00 | 86 | 1013.8 |
| 20260502185032 | 64 | 272 | 2.6 | 6.1 | 0.00 | 0.00 | 0.00 | 87 | 1013.9 |
| 20260502184558 | 64 | 299 | 3.5 | 6.1 | 0.00 | 0.00 | 0.00 | 86 | 1013.9 |
| 20260502184034 | 64 | 280 | 2.6 | 6.1 | 0.00 | 0.00 | 0.00 | 87 | 1013.9 |
| 20260502183532 | 64 | 272 | 1.7 | 7.0 | 0.00 | 0.00 | 0.00 | 86 | 1013.9 |
| 20260502183051 | 64 | 264 | 3.5 | 7.0 | 0.00 | 0.00 | 0.00 | 86 | 1014.0 |
| 20260502182531 | 64 | 298 | 2.6 | 7.0 | 0.00 | 0.00 | 0.00 | 86 | 1014.0 |
| 20260502182035 | 64 | 263 | 2.6 | 7.8 | 0.00 | 0.00 | 0.00 | 86 | 1014.1 |
| 20260502181552 | 64 | 254 | 2.6 | 7.8 | 0.00 | 0.00 | 0.00 | 86 | 1014.3 |
| 20260502181035 | 64 | 273 | 4.3 | 7.8 | 0.00 | 0.00 | 0.00 | 86 | 1014.2 |
| 20260502180535 | 64 | 266 | 2.6 | 6.1 | 0.00 | 0.00 | 0.00 | 86 | 1014.2 |
| 20260502180112 | 64 | 311 | 1.7 | 4.3 | 0.00 | 0.00 | 0.00 | 86 | 1014.1 |
| 20260502164032 | 62 | 0 | 0.0 | 2.6 | 0.00 | 0.00 | 0.00 | 87 | 1014.6 |
| 20260502163535 | 62 | 352 | 0.0 | 2.6 | 0.00 | 0.00 | 0.00 | 87 | 1014.6 |
| 20260502163048 | 62 | 310 | 0.0 | 2.6 | 0.00 | 0.00 | 0.00 | 88 | 1014.8 |
| 20260502162533 | 62 | 26 | 0.0 | 1.7 | 0.00 | 0.00 | 0.00 | 88 | 1014.7 |
| 20260502162035 | 62 | 0 | 0.0 | 1.7 | 0.00 | 0.00 | 0.00 | 88 | 1014.6 |
| 20260502161545 | 62 | 0 | 0.0 | 2.6 | 0.00 | 0.00 | 0.00 | 88 | 1014.5 |
| 20260502161033 | 62 | 0 | 0.9 | 4.3 | 0.00 | 0.00 | 0.00 | 88 | 1014.5 |
| 20260502160531 | 62 | 294 | 0.9 | 4.3 | 0.00 | 0.00 | 0.00 | 88 | 1014.7 |
| 20260502152030 | 62 | 0 | 0.0 | 1.7 | 0.00 | 0.00 | 0.00 | 89 | 1014.6 |
| 20260502151556 | 62 | 0 | 0.0 | 0.0 | 0.00 | 0.00 | 0.00 | 89 | 1014.6 |
| 20260502151034 | 62 | 0 | 0.0 | 0.0 | 0.00 | 0.00 | 0.00 | 89 | 1014.4 |
| 20260502150534 | 62 | 0 | 0.0 | 0.0 | 0.00 | 0.00 | 0.00 | 89 | 1014.4 |
| 20260502130532 | 61 | 0 | 0.0 | 0.0 | 0.00 | 0.00 | 0.00 | 88 | 1013.7 |
| 20260502123534 | 61 | 0 | 0.0 | 0.9 | 0.00 | 0.00 | 0.00 | 88 | 1013.7 |
| 20260502123047 | 61 | 0 | 0.0 | 1.7 | 0.00 | 0.00 | 0.00 | 88 | 1013.7 |
| 20260502122535 | 61 | 0 | 0.0 | 1.7 | 0.00 | 0.00 | 0.00 | 88 | 1013.6 |
| 20260502122032 | 61 | 0 | 0.0 | 0.9 | 0.00 | 0.00 | 0.00 | 88 | 1013.5 |
| 20260502121600 | 61 | 0 | 0.0 | 1.7 | 0.00 | 0.00 | 0.00 | 88 | 1013.5 |
| 20260502121037 | 61 | 0 | 0.0 | 1.7 | 0.00 | 0.00 | 0.00 | 88 | 1013.6 |
| 20260502120532 | 61 | 0 | 0.0 | 0.9 | 0.00 | 0.00 | 0.00 | 88 | 1013.5 |
| 20260502115534 | 61 | 0 | 0.0 | 0.9 | 0.00 | 0.00 | 0.00 | 88 | 1013.4 |
| 20260502115031 | 61 | 0 | 0.0 | 0.0 | 0.00 | 0.00 | 0.00 | 88 | 1013.4 |
| 20260502114550 | 61 | 0 | 0.0 | 0.0 | 0.00 | 0.00 | 0.00 | 88 | 1013.3 |
| 20260502114035 | 61 | 0 | 0.0 | 0.0 | 0.00 | 0.00 | 0.00 | 88 | 1013.3 |
| 20260502113533 | 61 | 0 | 0.0 | 1.7 | 0.00 | 0.00 | 0.00 | 88 | 1013.3 |
| 20260502113045 | 61 | 0 | 0.0 | 1.7 | 0.00 | 0.00 | 0.00 | 88 | 1013.2 |
| 20260502112531 | 61 | 0 | 0.0 | 0.9 | 0.00 | 0.00 | 0.00 | 88 | 1013.3 |
| 20260502112031 | 61 | 0 | 0.0 | 0.9 | 0.00 | 0.00 | 0.00 | 88 | 1013.2 |
| 20260502111556 | 61 | 0 | 0.0 | 0.0 | 0.00 | 0.00 | 0.00 | 88 | 1013.3 |
| 20260502111035 | 61 | 0 | 0.0 | 0.0 | 0.00 | 0.00 | 0.00 | 88 | 1013.3 |
| 20260502110532 | 61 | 0 | 0.0 | 0.9 | 0.00 | 0.00 | 0.00 | 88 | 1013.4 |
| 20260502110050 | 61 | 0 | 0.0 | 0.9 | 0.00 | 0.00 | 0.00 | 88 | 1013.3 |
| 20260502105538 | 61 | 0 | 0.0 | 4.3 | 0.00 | 0.00 | 0.00 | 88 | 1013.2 |
| 20260502105034 | 61 | 0 | 0.0 | 4.3 | 0.00 | 0.00 | 0.00 | 88 | 1013.2 |
| 20260502104553 | 61 | 212 | 0.9 | 4.3 | 0.00 | 0.00 | 0.00 | 88 | 1013.2 |
| 20260502104037 | 61 | 260 | 0.0 | 1.7 | 0.00 | 0.00 | 0.00 | 88 | 1013.2 |
| 20260502103531 | 61 | 0 | 0.0 | 0.9 | 0.00 | 0.00 | 0.00 | 88 | 1013.2 |
| 20260502103053 | 61 | 0 | 0.0 | 0.9 | 0.00 | 0.00 | 0.00 | 88 | 1013.2 |
| 20260502102537 | 61 | 0 | 0.0 | 0.9 | 0.00 | 0.00 | 0.00 | 88 | 1013.2 |
| 20260502102035 | 61 | 0 | 0.0 | 0.0 | 0.00 | 0.00 | 0.00 | 88 | 1013.2 |
| 20260502101605 | 61 | 0 | 0.0 | 0.9 | 0.00 | 0.00 | 0.00 | 88 | 1013.2 |
| 20260502101035 | 61 | 0 | 0.0 | 0.9 | 0.00 | 0.00 | 0.00 | 88 | 1013.1 |
| 20260502100535 | 61 | 0 | 0.0 | 2.6 | 0.00 | 0.00 | 0.00 | 88 | 1013.1 |
| 20260502100116 | 61 | 0 | 0.0 | 2.6 | 0.00 | 0.00 | 0.00 | 88 | 1013.0 |
| 20260502091034 | 61 | 0 | 0.0 | 1.7 | 0.00 | 0.00 | 0.00 | 87 | 1013.2 |
| 20260502090534 | 61 | 210 | 0.0 | 0.9 | 0.00 | 0.00 | 0.00 | 87 | 1013.1 |
| 20260502071034 | 62 | 277 | 0.0 | 1.7 | 0.00 | 0.00 | 0.00 | 86 | 1013.8 |
| 20260502070535 | 62 | 0 | 0.0 | 1.7 | 0.00 | 0.00 | 0.00 | 86 | 1013.9 |
| 20260502070054 | 62 | 0 | 0.0 | 1.7 | 0.00 | 0.00 | 0.00 | 86 | 1014.0 |
| 20260502065531 | 62 | 0 | 0.0 | 1.7 | 0.00 | 0.00 | 0.00 | 86 | 1013.9 |
| 20260502065033 | 62 | 327 | 0.0 | 1.7 | 0.00 | 0.00 | 0.00 | 86 | 1014.0 |
| 20260502064552 | 62 | 0 | 0.0 | 1.7 | 0.00 | 0.00 | 0.00 | 86 | 1013.9 |
| 20260502064031 | 62 | 352 | 0.0 | 1.7 | 0.00 | 0.00 | 0.00 | 86 | 1013.9 |
| 20260502063530 | 62 | 0 | 0.0 | 0.9 | 0.00 | 0.00 | 0.00 | 86 | 1013.9 |
| 20260502063057 | 62 | 0 | 0.0 | 0.9 | 0.00 | 0.00 | 0.00 | 86 | 1013.8 |
| 20260502062531 | 62 | 304 | 0.0 | 2.6 | 0.00 | 0.00 | 0.00 | 86 | 1013.9 |
| 20260502062032 | 62 | 275 | 0.0 | 2.6 | 0.00 | 0.00 | 0.00 | 86 | 1013.9 |
| 20260502061547 | 62 | 229 | 0.0 | 2.6 | 0.00 | 0.00 | 0.00 | 86 | 1013.9 |
| 20260502061031 | 62 | 0 | 0.0 | 1.7 | 0.00 | 0.00 | 0.00 | 86 | 1013.9 |
| 20260502060531 | 62 | 0 | 0.0 | 2.6 | 0.00 | 0.00 | 0.00 | 86 | 1013.9 |
| 20260502060107 | 62 | 229 | 0.0 | 2.6 | 0.00 | 0.00 | 0.00 | 86 | 1013.9 |
| 20260502055531 | 62 | 229 | 0.9 | 2.6 | 0.00 | 0.00 | 0.00 | 86 | 1014.0 |
| 20260502055031 | 62 | 215 | 0.0 | 2.6 | 0.00 | 0.00 | 0.00 | 86 | 1014.0 |
| 20260502054549 | 62 | 0 | 0.0 | 2.6 | 0.00 | 0.00 | 0.00 | 86 | 1014.0 |
| 20260502054030 | 62 | 252 | 0.0 | 2.6 | 0.00 | 0.00 | 0.00 | 86 | 1013.9 |
| 20260502053531 | 62 | 0 | 0.9 | 2.6 | 0.00 | 0.00 | 0.00 | 86 | 1013.9 |
| 20260502053100 | 62 | 0 | 0.0 | 2.6 | 0.00 | 0.00 | 0.00 | 86 | 1014.0 |
| 20260502052531 | 62 | 0 | 0.9 | 2.6 | 0.00 | 0.00 | 0.00 | 86 | 1014.0 |
| 20260502052034 | 62 | 289 | 0.9 | 1.7 | 0.00 | 0.00 | 0.00 | 86 | 1013.9 |
| 20260502051559 | 62 | 304 | 0.0 | 2.6 | 0.00 | 0.00 | 0.00 | 86 | 1013.9 |
| 20260502051031 | 62 | 0 | 0.0 | 2.6 | 0.00 | 0.00 | 0.00 | 86 | 1013.9 |
| 20260502050531 | 62 | 284 | 0.9 | 1.7 | 0.00 | 0.00 | 0.00 | 86 | 1013.8 |
| 20260502050056 | 62 | 0 | 0.0 | 0.9 | 0.00 | 0.00 | 0.00 | 86 | 1013.9 |
| 20260502045537 | 62 | 0 | 0.0 | 2.6 | 0.00 | 0.00 | 0.00 | 86 | 1013.9 |
| 20260502045032 | 62 | 0 | 0.9 | 2.6 | 0.00 | 0.00 | 0.00 | 85 | 1013.8 |
| 20260502044546 | 62 | 287 | 0.0 | 1.7 | 0.00 | 0.00 | 0.00 | 85 | 1013.9 |
| 20260502044031 | 62 | 0 | 0.9 | 2.6 | 0.00 | 0.00 | 0.00 | 85 | 1013.8 |
| 20260502043531 | 62 | 0 | 0.9 | 2.6 | 0.00 | 0.00 | 0.00 | 85 | 1013.7 |
| 20260502043044 | 62 | 296 | 0.9 | 2.6 | 0.00 | 0.00 | 0.00 | 85 | 1013.8 |
| 20260502042531 | 62 | 305 | 0.0 | 1.7 | 0.00 | 0.00 | 0.00 | 85 | 1013.8 |
| 20260502042032 | 62 | 0 | 0.0 | 0.9 | 0.00 | 0.00 | 0.00 | 84 | 1013.7 |
| 20260502041545 | 62 | 0 | 0.0 | 1.7 | 0.00 | 0.00 | 0.00 | 84 | 1013.7 |
| 20260502041031 | 62 | 0 | 0.0 | 1.7 | 0.00 | 0.00 | 0.00 | 84 | 1013.7 |
| 20260502040534 | 62 | 0 | 0.0 | 1.7 | 0.00 | 0.00 | 0.00 | 84 | 1013.7 |
| 20260502040048 | 62 | 0 | 0.0 | 3.5 | 0.00 | 0.00 | 0.00 | 84 | 1013.6 |
| 20260502035531 | 62 | 245 | 1.7 | 3.5 | 0.00 | 0.00 | 0.00 | 84 | 1013.6 |
| 20260502035031 | 62 | 260 | 0.0 | 2.6 | 0.00 | 0.00 | 0.00 | 84 | 1013.5 |
| 20260502034548 | 62 | 0 | 0.0 | 2.6 | 0.00 | 0.00 | 0.00 | 84 | 1013.5 |
| 20260502034033 | 62 | 0 | 0.0 | 0.9 | 0.00 | 0.00 | 0.00 | 84 | 1013.4 |
| 20260502033531 | 62 | 0 | 0.0 | 2.6 | 0.00 | 0.00 | 0.00 | 84 | 1013.3 |
| 20260502033052 | 62 | 0 | 0.0 | 2.6 | 0.00 | 0.00 | 0.00 | 84 | 1013.3 |
| 20260502032531 | 62 | 19 | 0.9 | 2.6 | 0.00 | 0.00 | 0.00 | 84 | 1013.3 |
| 20260502032032 | 62 | 321 | 0.9 | 2.6 | 0.00 | 0.00 | 0.00 | 84 | 1013.2 |
| 20260502031545 | 62 | 0 | 0.0 | 1.7 | 0.00 | 0.00 | 0.00 | 84 | 1013.2 |
| 20260502031031 | 62 | 0 | 0.0 | 3.5 | 0.00 | 0.00 | 0.00 | 84 | 1013.1 |
| 20260502030534 | 62 | 276 | 0.9 | 3.5 | 0.00 | 0.00 | 0.00 | 84 | 1013.2 |
| 20260502030045 | 63 | 284 | 0.9 | 3.5 | 0.00 | 0.00 | 0.00 | 84 | 1013.2 |
| 20260502025534 | 63 | 324 | 0.9 | 3.5 | 0.00 | 0.00 | 0.00 | 84 | 1013.2 |
| 20260502025030 | 63 | 0 | 0.9 | 3.5 | 0.00 | 0.00 | 0.00 | 84 | 1013.1 |
| 20260502024544 | 63 | 291 | 1.7 | 3.5 | 0.00 | 0.00 | 0.00 | 83 | 1013.1 |
| 20260502024031 | 63 | 229 | 0.9 | 3.5 | 0.00 | 0.00 | 0.00 | 83 | 1013.0 |
| 20260502023531 | 63 | 306 | 0.9 | 2.6 | 0.00 | 0.00 | 0.00 | 83 | 1012.9 |
| 20260502023040 | 63 | 13 | 0.0 | 3.5 | 0.00 | 0.00 | 0.00 | 83 | 1012.8 |
| 20260502022530 | 63 | 327 | 0.9 | 3.5 | 0.00 | 0.00 | 0.00 | 83 | 1012.8 |
| 20260502022031 | 63 | 259 | 0.9 | 4.3 | 0.00 | 0.00 | 0.00 | 83 | 1012.6 |
| 20260502021545 | 63 | 309 | 0.9 | 5.2 | 0.00 | 0.00 | 0.00 | 82 | 1012.6 |
| 20260502021032 | 63 | 312 | 1.7 | 6.1 | 0.00 | 0.00 | 0.00 | 82 | 1012.6 |
| 20260502020531 | 63 | 246 | 2.6 | 6.1 | 0.00 | 0.00 | 0.00 | 82 | 1012.5 |
| 20260502020045 | 63 | 223 | 3.5 | 6.1 | 0.00 | 0.00 | 0.00 | 82 | 1012.6 |
| 20260502015531 | 63 | 248 | 1.7 | 7.0 | 0.00 | 0.00 | 0.00 | 81 | 1012.5 |
| 20260502015031 | 64 | 279 | 1.7 | 7.0 | 0.00 | 0.00 | 0.00 | 81 | 1012.5 |
| 20260502014544 | 64 | 297 | 3.5 | 7.0 | 0.00 | 0.00 | 0.00 | 81 | 1012.5 |
| 20260502014030 | 64 | 292 | 2.6 | 6.1 | 0.00 | 0.00 | 0.00 | 81 | 1012.5 |
| 20260502013530 | 64 | 271 | 1.7 | 6.1 | 0.00 | 0.00 | 0.00 | 80 | 1012.5 |
| 20260502013054 | 64 | 263 | 2.6 | 6.1 | 0.00 | 0.00 | 0.00 | 80 | 1012.4 |
| 20260502012531 | 64 | 238 | 1.7 | 6.1 | 0.00 | 0.00 | 0.00 | 80 | 1012.3 |
| 20260502012032 | 64 | 288 | 2.6 | 6.1 | 0.00 | 0.00 | 0.00 | 80 | 1012.3 |
| 20260502011602 | 64 | 246 | 0.9 | 6.1 | 0.00 | 0.00 | 0.00 | 80 | 1012.3 |
| 20260502011032 | 65 | 304 | 2.6 | 6.1 | 0.00 | 0.00 | 0.00 | 79 | 1012.3 |
| 20260502010535 | 65 | 313 | 2.6 | 8.7 | 0.00 | 0.00 | 0.00 | 79 | 1012.3 |
| 20260502010047 | 65 | 256 | 1.7 | 8.7 | 0.00 | 0.00 | 0.00 | 78 | 1012.2 |
| 20260502005535 | 65 | 282 | 2.6 | 7.0 | 0.00 | 0.00 | 0.00 | 78 | 1012.2 |
| 20260502005036 | 66 | 315 | 2.6 | 7.0 | 0.00 | 0.00 | 0.00 | 78 | 1012.2 |
| 20260502004557 | 66 | 263 | 3.5 | 7.0 | 0.00 | 0.00 | 0.00 | 76 | 1012.3 |
| 20260502004035 | 67 | 217 | 2.6 | 7.0 | 0.00 | 0.00 | 0.00 | 76 | 1012.2 |
| 20260502003535 | 67 | 263 | 3.5 | 7.0 | 0.00 | 0.00 | 0.00 | 76 | 1012.2 |
| 20260502003045 | 67 | 325 | 2.6 | 7.0 | 0.00 | 0.00 | 0.00 | 76 | 1012.0 |
| 20260502002535 | 67 | 281 | 3.5 | 7.0 | 0.00 | 0.00 | 0.00 | 76 | 1012.1 |
| 20260502002037 | 67 | 231 | 3.5 | 7.0 | 0.00 | 0.00 | 0.00 | 75 | 1012.1 |
| 20260502001544 | 68 | 284 | 3.5 | 7.0 | 0.00 | 0.00 | 0.00 | 75 | 1012.0 |
| 20260502001035 | 68 | 291 | 3.5 | 7.0 | 0.00 | 0.00 | 0.00 | 75 | 1012.0 |
| 20260502000535 | 68 | 256 | 1.7 | 7.0 | 0.00 | 0.00 | 0.00 | 75 | 1011.9 |
| 20260502000051 | 68 | 269 | 2.6 | 7.8 | 0.00 | 0.00 | 0.00 | 75 | 1012.0 |
| 20260501235533 | 68 | 296 | 2.6 | 7.8 | 0.00 | 0.00 | 0.00 | 75 | 1011.9 |
| 20260501235037 | 68 | 272 | 4.3 | 7.8 | 0.00 | 0.00 | 0.00 | 74 | 1012.0 |
| 20260501234549 | 68 | 319 | 2.6 | 7.8 | 0.00 | 0.00 | 0.00 | 74 | 1012.0 |
| 20260501234036 | 68 | 306 | 3.5 | 7.8 | 0.00 | 0.00 | 0.00 | 73 | 1012.1 |
| 20260501233534 | 68 | 218 | 3.5 | 7.8 | 0.00 | 0.00 | 0.00 | 74 | 1012.0 |
| 20260501233046 | 68 | 314 | 3.5 | 7.0 | 0.00 | 0.00 | 0.00 | 74 | 1012.0 |
| 20260501232535 | 68 | 236 | 3.5 | 7.0 | 0.00 | 0.00 | 0.00 | 73 | 1012.1 |
| 20260501232034 | 68 | 279 | 3.5 | 7.0 | 0.00 | 0.00 | 0.00 | 73 | 1012.0 |